Datetime-UTC, Datetime-J2000, North, East, Up
2024/01/31 00:00:00, 759931200.00, 0.000000, 0.000000, 0.000000
2024/01/31 00:05:00, 759931500.00, 0.000200, -0.003800, 0.016400
2024/01/31 00:10:00, 759931800.00, 0.009100, -0.001800, 0.021300
2024/01/31 00:15:00, 759932100.00, 0.006300, -0.004700, 0.030700
2024/01/31 00:20:00, 759932400.00, 0.007200, 0.000700, 0.016700
2024/01/31 00:25:00, 759932700.00, 0.010600, 0.003000, 0.042900
2024/01/31 00:30:00, 759933000.00, 0.016200, -0.000400, 0.042500
2024/01/31 00:35:00, 759933300.00, 0.009700, -0.002100, 0.049200
2024/01/31 00:40:00, 759933600.00, 0.016800, 0.002000, 0.031000
2024/01/31 00:45:00, 759933900.00, 0.007900, 0.003400, 0.010500
2024/01/31 00:50:00, 759934200.00, 0.014900, -0.000900, 0.041000
2024/01/31 00:55:00, 759934500.00, 0.008600, 0.006600, 0.029600
2024/01/31 01:00:00, 759934800.00, 0.020900, 0.003100, 0.013500
2024/01/31 01:05:00, 759935100.00, 0.019000, 0.007400, 0.035200
2024/01/31 01:10:00, 759935400.00, 0.021600, 0.010200, 0.024900
2024/01/31 01:15:00, 759935700.00, 0.025800, 0.006300, 0.027700
2024/01/31 01:20:00, 759936000.00, 0.018200, 0.005500, 0.039700
2024/01/31 01:25:00, 759936300.00, 0.021300, 0.008100, 0.030800
2024/01/31 01:30:00, 759936600.00, 0.013300, 0.005000, 0.031700
2024/01/31 01:35:00, 759936900.00, 0.024900, 0.005800, 0.020900
2024/01/31 01:40:00, 759937200.00, 0.029900, 0.016300, 0.037900
2024/01/31 01:45:00, 759937500.00, 0.027300, 0.010600, 0.029200
2024/01/31 01:50:00, 759937800.00, 0.020800, 0.009200, 0.028800
2024/01/31 01:55:00, 759938100.00, 0.016300, 0.017800, 0.011300
2024/01/31 02:00:00, 759938400.00, 0.018800, 0.018900, 0.006200
2024/01/31 02:05:00, 759938700.00, 0.023500, 0.017000, 0.018100
2024/01/31 02:10:00, 759939000.00, 0.019600, 0.022600, -0.001300
2024/01/31 02:15:00, 759939300.00, 0.026200, 0.019000, 0.012400
2024/01/31 02:20:00, 759939600.00, 0.026500, 0.019000, 0.031700
2024/01/31 02:25:00, 759939900.00, 0.025400, 0.018700, 0.020600
2024/01/31 02:30:00, 759940200.00, 0.024800, 0.015400, 0.006000
2024/01/31 02:35:00, 759940500.00, 0.029500, 0.018000, 0.010800
2024/01/31 02:40:00, 759940800.00, 0.020200, 0.015700, 0.025300
2024/01/31 02:45:00, 759941100.00, 0.021300, 0.016400, 0.030100
2024/01/31 02:50:00, 759941400.00, 0.028200, 0.022900, 0.027000
2024/01/31 02:55:00, 759941700.00, 0.025200, 0.018500, 0.024200
2024/01/31 03:00:00, 759942000.00, 0.023700, 0.018800, 0.020700
2024/01/31 03:05:00, 759942300.00, 0.026300, 0.018600, 0.028200
2024/01/31 03:10:00, 759942600.00, 0.029300, 0.017300, 0.028600
2024/01/31 03:15:00, 759942900.00, 0.027600, 0.021000, 0.015000
2024/01/31 03:20:00, 759943200.00, 0.029200, 0.015700, 0.029100
2024/01/31 03:25:00, 759943500.00, 0.024600, 0.017700, 0.033100
2024/01/31 03:30:00, 759943800.00, 0.031900, 0.019700, 0.021700
2024/01/31 03:35:00, 759944100.00, 0.031300, 0.026300, 0.022800
2024/01/31 03:40:00, 759944400.00, 0.032700, 0.019300, 0.027300
2024/01/31 03:45:00, 759944700.00, 0.039700, 0.024200, 0.030600
2024/01/31 03:50:00, 759945000.00, 0.029300, 0.018800, 0.027400
2024/01/31 03:55:00, 759945300.00, 0.035000, 0.022300, 0.016500
2024/01/31 04:00:00, 759945600.00, 0.030400, 0.025100, 0.035500
2024/01/31 04:05:00, 759945900.00, 0.039200, 0.021400, 0.038700
2024/01/31 04:10:00, 759946200.00, 0.032000, 0.022500, 0.037100
2024/01/31 04:15:00, 759946500.00, 0.028000, 0.026900, 0.023000
2024/01/31 04:20:00, 759946800.00, 0.025200, 0.026800, 0.026500
2024/01/31 04:25:00, 759947100.00, 0.024900, 0.024500, 0.038000
2024/01/31 04:30:00, 759947400.00, 0.037100, 0.025300, 0.030100
2024/01/31 04:35:00, 759947700.00, 0.028400, 0.028100, 0.027400
2024/01/31 04:40:00, 759948000.00, 0.027900, 0.030900, 0.027400
2024/01/31 04:45:00, 759948300.00, 0.031800, 0.028400, 0.038100
2024/01/31 04:50:00, 759948600.00, 0.023700, 0.030000, 0.035300
2024/01/31 04:55:00, 759948900.00, 0.029800, 0.022800, 0.027000
2024/01/31 05:00:00, 759949200.00, 0.034000, 0.030000, 0.033400
2024/01/31 05:05:00, 759949500.00, 0.027200, 0.026600, 0.034700
2024/01/31 05:10:00, 759949800.00, 0.027700, 0.027500, 0.027100
2024/01/31 05:15:00, 759950100.00, 0.031700, 0.028100, 0.025700
2024/01/31 05:20:00, 759950400.00, 0.023700, 0.028300, 0.026800
2024/01/31 05:25:00, 759950700.00, 0.026800, 0.027700, 0.023300
2024/01/31 05:30:00, 759951000.00, 0.026500, 0.028200, 0.026100
2024/01/31 05:35:00, 759951300.00, 0.026400, 0.026700, 0.025700
2024/01/31 05:40:00, 759951600.00, 0.023400, 0.030900, 0.028100
2024/01/31 05:45:00, 759951900.00, 0.027100, 0.029900, 0.011000
2024/01/31 05:50:00, 759952200.00, 0.025200, 0.030800, 0.016800
2024/01/31 05:55:00, 759952500.00, 0.025100, 0.028300, 0.030300
2024/01/31 06:00:00, 759952800.00, 0.030000, 0.032200, 0.022300
2024/01/31 06:05:00, 759953100.00, 0.027100, 0.032700, 0.020900
2024/01/31 06:10:00, 759953400.00, 0.030100, 0.034500, 0.016300
2024/01/31 06:15:00, 759953700.00, 0.032100, 0.035400, 0.021000
2024/01/31 06:20:00, 759954000.00, 0.033700, 0.036200, 0.018500
2024/01/31 06:25:00, 759954300.00, 0.030100, 0.032300, 0.013400
2024/01/31 06:30:00, 759954600.00, 0.036100, 0.030000, 0.026700
2024/01/31 06:35:00, 759954900.00, 0.034700, 0.029000, 0.008800
2024/01/31 06:40:00, 759955200.00, 0.027600, 0.034000, 0.019300
2024/01/31 06:45:00, 759955500.00, 0.029700, 0.036700, 0.021400
2024/01/31 06:50:00, 759955800.00, 0.039500, 0.035600, 0.016900
2024/01/31 06:55:00, 759956100.00, 0.027700, 0.035600, 0.013400
2024/01/31 07:00:00, 759956400.00, 0.041600, 0.016000, 0.019300
2024/01/31 07:05:00, 759956700.00, 0.015800, 0.038400, 0.008900
2024/01/31 07:10:00, 759957000.00, 0.015400, 0.037000, 0.025800
2024/01/31 07:15:00, 759957300.00, 0.008100, 0.032600, 0.040700
2024/01/31 07:20:00, 759957600.00, 0.014300, 0.033900, 0.030800
2024/01/31 07:25:00, 759957900.00, 0.029000, 0.032200, 0.037200
2024/01/31 07:30:00, 759958200.00, 0.019800, 0.040700, 0.035100
2024/01/31 07:35:00, 759958500.00, 0.025400, 0.033200, 0.028200
2024/01/31 07:40:00, 759958800.00, 0.025000, 0.036400, 0.024900
2024/01/31 07:45:00, 759959100.00, 0.027700, 0.041600, 0.038300
2024/01/31 07:50:00, 759959400.00, 0.030400, 0.038200, 0.021300
2024/01/31 07:55:00, 759959700.00, 0.028700, 0.035500, 0.027200
2024/01/31 08:00:00, 759960000.00, 0.022800, 0.035000, 0.026700
2024/01/31 08:05:00, 759960300.00, 0.029400, 0.040000, 0.035300
2024/01/31 08:10:00, 759960600.00, 0.021200, 0.046000, 0.038800
2024/01/31 08:15:00, 759960900.00, 0.027400, 0.043700, 0.023700
2024/01/31 08:20:00, 759961200.00, 0.029300, 0.048900, 0.026100
2024/01/31 08:25:00, 759961500.00, 0.029300, 0.044600, 0.030900
2024/01/31 08:30:00, 759961800.00, 0.038900, 0.040000, 0.019500
2024/01/31 08:35:00, 759962100.00, 0.030700, 0.047100, 0.033800
2024/01/31 08:40:00, 759962400.00, 0.035700, 0.046500, 0.032300
2024/01/31 08:45:00, 759962700.00, 0.019500, 0.043500, 0.039300
2024/01/31 08:50:00, 759963000.00, 0.024200, 0.045700, 0.026500
2024/01/31 08:55:00, 759963300.00, 0.022600, 0.048700, 0.008100
2024/01/31 09:00:00, 759963600.00, 0.032800, 0.048000, 0.028100
2024/01/31 09:05:00, 759963900.00, 0.034200, 0.053000, 0.027700
2024/01/31 09:10:00, 759964200.00, 0.025800, 0.051900, 0.023400
2024/01/31 09:15:00, 759964500.00, 0.033000, 0.051800, 0.026600
2024/01/31 09:20:00, 759964800.00, 0.014300, 0.052400, 0.002000
2024/01/31 09:25:00, 759965100.00, 0.001500, 0.053000, -0.015800
2024/01/31 09:30:00, 759965400.00, 0.013500, 0.050700, -0.012600
2024/01/31 09:35:00, 759965700.00, 0.034500, 0.048100, 0.002500
2024/01/31 09:40:00, 759966000.00, 0.016500, 0.044600, 0.000800
2024/01/31 09:45:00, 759966300.00, 0.037100, 0.051700, 0.006400
2024/01/31 09:50:00, 759966600.00, 0.026900, 0.052700, 0.003900
2024/01/31 09:55:00, 759966900.00, 0.039500, 0.052500, 0.010200
2024/01/31 10:00:00, 759967200.00, 0.029900, 0.050400, 0.017600
2024/01/31 10:05:00, 759967500.00, 0.048000, 0.055600, -0.015500
2024/01/31 10:10:00, 759967800.00, 0.026800, 0.050600, 0.012500
2024/01/31 10:15:00, 759968100.00, 0.045900, 0.060200, -0.020900
2024/01/31 10:20:00, 759968400.00, 0.040900, 0.058900, -0.023200
2024/01/31 10:25:00, 759968700.00, 0.051600, 0.054700, -0.029900
2024/01/31 10:30:00, 759969000.00, 0.053500, 0.057500, -0.042900
2024/01/31 10:35:00, 759969300.00, 0.040200, 0.048800, 0.005900
2024/01/31 10:40:00, 759969600.00, 0.040000, 0.050100, -0.020000
2024/01/31 10:45:00, 759969900.00, 0.044800, 0.047000, -0.015600
2024/01/31 10:50:00, 759970200.00, 0.051600, 0.048500, -0.007500
2024/01/31 10:55:00, 759970500.00, 0.040600, 0.045700, 0.006200
2024/01/31 11:00:00, 759970800.00, 0.042400, 0.046800, -0.011200
2024/01/31 11:05:00, 759971100.00, 0.037100, 0.044200, 0.003400
2024/01/31 11:10:00, 759971400.00, 0.030700, 0.045000, -0.013500
2024/01/31 11:15:00, 759971700.00, 0.034500, 0.041800, -0.019900
2024/01/31 11:20:00, 759972000.00, 0.034600, 0.044400, -0.001400
2024/01/31 11:25:00, 759972300.00, 0.030500, 0.049200, -0.031700
2024/01/31 11:30:00, 759972600.00, 0.029600, 0.045400, -0.030200
2024/01/31 11:35:00, 759972900.00, 0.031700, 0.047000, -0.039600
2024/01/31 11:40:00, 759973200.00, 0.026500, 0.047600, -0.019700
2024/01/31 11:45:00, 759973500.00, 0.038200, 0.050100, -0.029500
2024/01/31 11:50:00, 759973800.00, 0.035600, 0.054200, -0.024400
2024/01/31 11:55:00, 759974100.00, 0.033500, 0.056900, -0.014500
2024/01/31 12:00:00, 759974400.00, 0.031900, 0.068100, -0.016400
2024/01/31 12:05:00, 759974700.00, 0.035500, 0.067400, -0.008300
2024/01/31 12:10:00, 759975000.00, 0.036100, 0.063500, 0.011800
2024/01/31 12:15:00, 759975300.00, 0.043600, 0.055100, 0.065100
2024/01/31 12:20:00, 759975600.00, 0.037700, 0.051000, 0.073400
2024/01/31 12:25:00, 759975900.00, 0.029700, 0.053600, 0.063900
2024/01/31 12:30:00, 759976200.00, 0.026800, 0.054000, 0.080600
2024/01/31 12:35:00, 759976500.00, 0.031300, 0.052000, 0.061800
2024/01/31 12:40:00, 759976800.00, 0.034600, 0.048500, 0.054600
2024/01/31 12:45:00, 759977100.00, 0.021800, 0.048700, 0.063400
2024/01/31 12:50:00, 759977400.00, 0.048800, 0.051300, 0.040800
2024/01/31 12:55:00, 759977700.00, 0.033200, 0.051000, 0.058400
2024/01/31 13:00:00, 759978000.00, 0.027800, 0.053000, 0.061900
2024/01/31 13:05:00, 759978300.00, 0.050400, 0.046800, 0.030100
2024/01/31 13:10:00, 759978600.00, 0.044200, 0.044200, 0.024800
2024/01/31 13:15:00, 759978900.00, 0.053300, 0.050900, 0.025200
2024/01/31 13:20:00, 759979200.00, 0.052600, 0.042700, 0.009300
2024/01/31 13:25:00, 759979500.00, 0.050300, 0.043100, 0.023800
2024/01/31 13:30:00, 759979800.00, 0.049200, 0.044500, 0.016800
2024/01/31 13:35:00, 759980100.00, 0.041900, 0.048800, 0.014200
2024/01/31 13:40:00, 759980400.00, 0.045200, 0.039600, 0.025500
2024/01/31 13:45:00, 759980700.00, 0.039200, 0.040300, 0.018600
2024/01/31 13:50:00, 759981000.00, 0.041300, 0.040400, 0.011500
2024/01/31 13:55:00, 759981300.00, 0.036300, 0.037500, 0.002000
2024/01/31 14:00:00, 759981600.00, 0.038900, 0.039200, 0.020600
2024/01/31 14:05:00, 759981900.00, 0.032000, 0.036400, 0.008500
2024/01/31 14:10:00, 759982200.00, 0.035400, 0.031000, 0.002000
2024/01/31 14:15:00, 759982500.00, 0.034600, 0.032800, -0.009100
2024/01/31 14:20:00, 759982800.00, 0.025100, 0.034300, -0.015600
2024/01/31 14:25:00, 759983100.00, 0.035600, 0.031800, 0.011800
2024/01/31 14:30:00, 759983400.00, 0.035400, 0.034500, 0.004000
2024/01/31 14:35:00, 759983700.00, 0.042000, 0.032800, 0.014700
2024/01/31 14:40:00, 759984000.00, 0.037600, 0.035100, 0.011400
2024/01/31 14:45:00, 759984300.00, 0.037100, 0.033900, 0.024500
2024/01/31 14:50:00, 759984600.00, 0.040500, 0.036300, 0.017000
2024/01/31 14:55:00, 759984900.00, 0.045400, 0.037000, 0.015500
2024/01/31 15:00:00, 759985200.00, 0.043400, 0.033700, 0.036500
2024/01/31 15:05:00, 759985500.00, 0.043500, 0.039200, 0.024300
2024/01/31 15:10:00, 759985800.00, 0.042000, 0.032000, 0.035500
2024/01/31 15:15:00, 759986100.00, 0.045600, 0.036700, 0.015900
2024/01/31 15:20:00, 759986400.00, 0.048000, 0.038800, 0.014800
2024/01/31 15:25:00, 759986700.00, 0.047800, 0.032600, 0.023200
2024/01/31 15:30:00, 759987000.00, 0.045100, 0.038900, 0.026400
2024/01/31 15:35:00, 759987300.00, 0.037800, 0.034800, 0.026300
2024/01/31 15:40:00, 759987600.00, 0.026800, 0.045700, 0.055500
2024/01/31 15:45:00, 759987900.00, 0.049100, 0.034500, 0.053100
2024/01/31 15:50:00, 759988200.00, 0.038600, 0.036700, 0.035100
2024/01/31 15:55:00, 759988500.00, 0.015200, 0.045400, 0.039400
2024/01/31 16:00:00, 759988800.00, 0.024600, 0.035300, 0.043900
2024/01/31 16:05:00, 759989100.00, 0.032100, 0.045200, 0.033900
2024/01/31 16:10:00, 759989400.00, 0.027000, 0.038500, 0.037000
2024/01/31 16:15:00, 759989700.00, 0.020700, 0.045100, 0.032900
2024/01/31 16:20:00, 759990000.00, 0.010700, 0.050500, 0.019800
2024/01/31 16:25:00, 759990300.00, 0.028600, 0.040900, 0.041900
2024/01/31 16:30:00, 759990600.00, 0.026500, 0.045000, 0.033300
2024/01/31 16:35:00, 759990900.00, 0.026600, 0.047700, 0.051600
2024/01/31 16:40:00, 759991200.00, 0.018500, 0.043600, 0.046000
2024/01/31 16:45:00, 759991500.00, 0.018200, 0.044100, 0.035700
2024/01/31 16:50:00, 759991800.00, 0.026700, 0.043800, 0.026900
2024/01/31 16:55:00, 759992100.00, 0.021700, 0.044000, 0.020900
2024/01/31 17:00:00, 759992400.00, 0.024500, 0.046900, 0.021900
2024/01/31 17:05:00, 759992700.00, 0.024100, 0.049800, 0.018800
2024/01/31 17:10:00, 759993000.00, 0.015400, 0.043100, 0.028100
2024/01/31 17:15:00, 759993300.00, 0.037000, 0.053400, 0.011300
2024/01/31 17:20:00, 759993600.00, 0.029600, 0.045600, 0.023500
2024/01/31 17:25:00, 759993900.00, 0.043800, 0.049200, 0.018800
2024/01/31 17:30:00, 759994200.00, 0.036800, 0.045700, 0.030400
2024/01/31 17:35:00, 759994500.00, 0.048100, 0.053000, 0.043600
2024/01/31 17:40:00, 759994800.00, 0.032900, 0.044800, 0.060400
2024/01/31 17:45:00, 759995100.00, 0.032300, 0.053400, 0.022300
2024/01/31 17:50:00, 759995400.00, 0.028000, 0.052400, 0.040800
2024/01/31 17:55:00, 759995700.00, 0.036900, 0.048800, 0.026900
2024/01/31 18:00:00, 759996000.00, 0.034000, 0.049000, 0.023900
2024/01/31 18:05:00, 759996300.00, 0.041100, 0.050700, 0.017200
2024/01/31 18:10:00, 759996600.00, 0.035500, 0.048500, 0.023200
2024/01/31 18:15:00, 759996900.00, 0.031500, 0.042500, 0.041700
2024/01/31 18:20:00, 759997200.00, 0.032800, 0.049100, 0.034500
2024/01/31 18:25:00, 759997500.00, 0.037900, 0.051300, 0.015600
2024/01/31 18:30:00, 759997800.00, 0.040400, 0.048900, 0.011100
2024/01/31 18:35:00, 759998100.00, 0.031700, 0.048900, 0.017200
2024/01/31 18:40:00, 759998400.00, 0.037700, 0.048300, 0.019200
2024/01/31 18:45:00, 759998700.00, 0.036100, 0.047600, 0.015000
2024/01/31 18:50:00, 759999000.00, 0.026100, 0.050500, 0.019600
2024/01/31 18:55:00, 759999300.00, 0.033000, 0.049300, 0.008500
2024/01/31 19:00:00, 759999600.00, 0.031300, 0.051600, 0.009300
2024/01/31 19:05:00, 759999900.00, 0.033200, 0.048900, 0.011400
2024/01/31 19:10:00, 760000200.00, 0.026600, 0.053100, 0.014400
2024/01/31 19:15:00, 760000500.00, 0.040300, 0.052800, 0.011300
2024/01/31 19:20:00, 760000800.00, 0.027800, 0.050000, 0.014000
2024/01/31 19:25:00, 760001100.00, 0.039300, 0.050100, 0.011200
2024/01/31 19:30:00, 760001400.00, 0.041800, 0.048800, 0.015200
2024/01/31 19:35:00, 760001700.00, 0.031400, 0.050300, 0.003600
2024/01/31 19:40:00, 760002000.00, 0.039200, 0.056300, 0.029600
2024/01/31 19:45:00, 760002300.00, 0.038500, 0.044700, 0.003500
2024/01/31 19:50:00, 760002600.00, 0.049800, 0.046500, 0.017400
2024/01/31 19:55:00, 760002900.00, 0.038100, 0.040100, 0.005000
2024/01/31 20:00:00, 760003200.00, 0.043400, 0.046700, 0.014300
2024/01/31 20:05:00, 760003500.00, 0.039200, 0.049800, 0.004700
2024/01/31 20:10:00, 760003800.00, 0.043400, 0.044200, -0.001600
2024/01/31 20:15:00, 760004100.00, 0.040700, 0.047600, 0.014100
2024/01/31 20:20:00, 760004400.00, 0.040600, 0.044700, 0.006400
2024/01/31 20:25:00, 760004700.00, 0.036500, 0.044900, 0.000200
2024/01/31 20:30:00, 760005000.00, 0.043800, 0.050600, 0.006700
2024/01/31 20:35:00, 760005300.00, 0.040500, 0.051300, 0.003700
2024/01/31 20:40:00, 760005600.00, 0.042200, 0.043900, 0.009700
2024/01/31 20:45:00, 760005900.00, 0.041300, 0.042000, 0.004000
2024/01/31 20:50:00, 760006200.00, 0.044300, 0.045800, 0.019600
2024/01/31 20:55:00, 760006500.00, 0.043000, 0.043300, -0.007000
2024/01/31 21:00:00, 760006800.00, 0.038600, 0.042700, 0.003900
2024/01/31 21:05:00, 760007100.00, 0.034100, 0.044700, -0.004900
2024/01/31 21:10:00, 760007400.00, 0.037600, 0.041800, 0.005100
2024/01/31 21:15:00, 760007700.00, 0.034600, 0.041300, -0.000500
2024/01/31 21:20:00, 760008000.00, 0.044200, 0.041500, 0.011000
2024/01/31 21:25:00, 760008300.00, 0.036800, 0.044200, -0.003600
2024/01/31 21:30:00, 760008600.00, 0.035300, 0.039800, -0.005600
2024/01/31 21:35:00, 760008900.00, 0.040000, 0.044600, -0.008300
2024/01/31 21:40:00, 760009200.00, 0.043000, 0.043300, -0.008700
2024/01/31 21:45:00, 760009500.00, 0.038600, 0.040700, 0.010600
2024/01/31 21:50:00, 760009800.00, 0.032000, 0.043300, -0.001700
2024/01/31 21:55:00, 760010100.00, 0.035800, 0.043300, 0.003600
2024/01/31 22:00:00, 760010400.00, 0.040600, 0.043500, 0.008900
2024/01/31 22:05:00, 760010700.00, 0.050200, 0.047900, 0.015300
2024/01/31 22:10:00, 760011000.00, 0.052000, 0.044700, 0.014900
2024/01/31 22:15:00, 760011300.00, 0.044100, 0.048300, 0.026000
2024/01/31 22:20:00, 760011600.00, 0.042200, 0.042300, 0.027900
2024/01/31 22:25:00, 760011900.00, 0.038000, 0.042200, 0.015100
2024/01/31 22:30:00, 760012200.00, 0.023700, 0.036300, 0.023600
2024/01/31 22:35:00, 760012500.00, 0.034500, 0.037900, 0.004700
2024/01/31 22:40:00, 760012800.00, 0.032500, 0.043700, 0.016900
2024/01/31 22:45:00, 760013100.00, 0.031800, 0.034700, -0.004600
2024/01/31 22:50:00, 760013400.00, 0.028900, 0.039100, 0.016000
2024/01/31 22:55:00, 760013700.00, 0.030400, 0.040800, 0.020700
2024/01/31 23:00:00, 760014000.00, 0.032700, 0.041300, 0.022700
2024/01/31 23:05:00, 760014300.00, 0.031100, 0.039800, 0.030100
2024/01/31 23:10:00, 760014600.00, 0.030300, 0.040300, 0.017500
2024/01/31 23:15:00, 760014900.00, 0.031200, 0.039200, 0.020800
2024/01/31 23:20:00, 760015200.00, 0.026900, 0.037500, 0.023900
2024/01/31 23:25:00, 760015500.00, 0.025000, 0.039400, 0.033200
2024/01/31 23:30:00, 760015800.00, 0.031400, 0.034400, 0.018100
2024/01/31 23:35:00, 760016100.00, 0.033400, 0.039600, 0.037100
2024/01/31 23:40:00, 760016400.00, 0.030300, 0.042600, 0.026600
2024/01/31 23:45:00, 760016700.00, 0.030200, 0.042600, 0.039900
2024/01/31 23:50:00, 760017000.00, 0.029300, 0.042600, 0.009000
2024/01/31 23:55:00, 760017300.00, 0.031100, 0.040700, 0.030300
